SCP
0 0 0 0 0 0 0 0 0 0 0 0 0 0 0 0 0 0 0 0 0 0 0 0 0 0 0 1 1 2 2 2 2 2 1 1 1 1 1 0 0 0 1 1
0 0 0 0 0 0 0 0 0 0 0 0 0 0 0 0 0 0 0 0 0 0 0 0 0 0 0 1 1 2 2 2 2 2 1 1 1 1 1 0 0 0 0 1
0 0 0 0 0 0 0 0 0 0 0 0 0 0 0 0 0 0 0 0 0 0 0 0 0 0 0 0 1 1 1 2 2 3 2 1 1 1 0 0 0 0 0 1
0 0 0 0 0 0 0 0 0 0 0 0 0 0 0 0 0 0 0 0 0 0 0 0 0 0 0 0 0 0 1 1 2 3 3 2 1 1 1 0 0 0 0 0
0 0 0 0 0 0 0 0 0 0 0 0 0 0 0 0 0 0 0 0 0 0 0 0 0 0 0 0 0 0 0 0 1 2 3 3 2 1 1 0 0 0 0 0
0 0 0 0 0 0 0 0 0 0 0 0 0 0 0 0 0 0 0 0 0 0 0 0 0 0 0 0 0 0 0 0 0 1 2 3 2 2 1 1 0 0 0 0
0 0 0 0 0 0 0 0 0 0 0 0 0 0 0 0 0 0 0 0 0 0 0 0 0 0 0 0 0 0 0 0 0 0 1 2 2 2 2 1 1 1 0 0
0 0 0 0 0 0 0 0 0 0 0 0 0 0 0 0 0 0 0 0 0 0 0 0 0 0 0 0 0 0 0 0 0 0 0 1 2 2 2 2 2 1 1 1
0 0 0 0 0 0 0 0 0 0 0 0 0 0 0 0 0 0 0 0 0 0 0 0 0 0 0 0 0 0 0 0 0 0 0 0 1 2 2 2 2 2 1 1
0 0 0 0 0 0 0 0 0 0 0 0 0 0 0 0 0 0 0 0 0 0 0 0 0 0 0 0 0 0 0 0 0 0 0 0 0 1 2 2 2 2 2 1
0 0 0 0 0 0 0 0 0 0 0 0 0 0 0 0 0 0 0 0 0 0 0 0 0 0 0 0 0 0 0 0 0 0 0 0 0 0 1 2 2 2 2 2
0 0 0 0 0 0 0 0 0 0 0 0 0 0 0 0 0 0 0 0 0 0 0 0 0 0 0 0 0 0 0 0 0 0 0 0 0 0 0 1 2 2 2 2
0 0 0 0 0 0 0 0 0 0 0 0 0 0 0 0 0 0 0 0 0 0 0 0 0 0 0 0 0 0 0 0 0 0 0 0 0 0 0 0 1 2 2 2
0 0 0 0 0 0 0 0 0 0 0 0 0 0 0 0 0 0 0 0 0 0 0 0 0 0 0 0 0 0 0 0 0 0 0 0 0 0 0 0 0 1 1 2
0 0 0 0 0 0 0 0 0 0 0 0 0 0 0 0 0 0 0 0 0 0 0 0 0 0 0 0 0 0 0 0 0 0 0 0 0 0 0 0 0 0 1 1
0 0 0 0 0 0 0 0 0 0 0 0 0 0 0 0 0 0 0 0 0 0 0 0 0 0 0 0 0 0 0 0 0 0 0 0 0 0 0 0 0 0 0 1
0 0 0 0 0 0 0 0 0 0 0 0 0 0 0 0 0 0 0 0 0 0 0 0 0 0 0 0 0 0 0 0 0 0 0 0 0 0 0 0 0 0 0 0
0 0 0 0 0 0 0 0 0 0 0 0 0 0 0 0 0 0 0 0 0 0 0 0 0 0 0 0 0 0 0 0 0 0 0 0 0 0 0 0 0 0 0 0
0 0 0 0 0 0 0 0 0 0 0 0 0 0 0 0 0 0 0 0 0 0 0 0 0 0 0 0 0 0 0 0 0 0 0 0 0 0 0 0 0 0 0 0
0 0 0 0 0 0 0 0 0 0 0 0 0 0 0 0 0 0 0 0 0 0 0 0 0 0 0 0 0 0 0 0 0 0 0 0 0 0 0 0 0 0 0 0
0 0 0 0 0 0 0 0 0 0 0 0 0 0 0 0 0 0 0 0 0 0 0 0 0 0 0 0 0 0 0 0 0 0 0 0 0 0 0 0 0 0 0 0
0 0 0 0 0 0 0 0 0 0 0 0 0 0 0 0 0 0 0 0 0 0 0 0 0 0 0 0 0 0 0 0 0 0 0 0 0 0 0 0 0 0 0 0
0 0 0 0 0 0 0 0 0 0 0 0 0 0 0 0 0 0 0 0 0 0 0 0 0 0 0 0 0 0 0 0 0 0 0 0 0 0 0 0 0 0 0 0
0 0 0 0 0 0 0 0 0 0 0 0 0 0 0 0 0 0 0 0 0 0 0 0 0 0 0 0 0 0 0 0 0 0 0 0 0 0 0 0 0 0 0 0
0 0 0 0 0 0 0 0 0 0 0 0 0 0 0 0 0 0 0 0 0 0 0 0 0 0 0 0 0 0 0 0 0 0 0 0 0 0 0 0 0 0 0 0
0 0 0 0 0 0 0 0 0 0 0 0 0 0 0 0 0 0 0 0 0 0 0 0 0 0 0 0 0 0 0 0 0 0 0 0 0 0 0 0 0 0 0 0
Wind_Speed
3 4 1 3 4 3 3 3 4 3 2 2 5 8 9 5 3 4 4 4 3 4 3 2 2 2 2 2 2 2 2 3 1 1 1 1 1 1 1 2 3 3 2 2
4 1 2 2 1 1 2 3 4 3 1 1 4 9 7 4 4 4 4 4 3 2 3 3 2 2 2 2 2 2 2 2 2 1 2 1 2 2 2 2 2 3 2 2
3 1 1 1 0 0 2 4 4 3 4 2 4 7 3 2 1 2 2 2 2 2 3 3 2 2 2 3 3 3 3 3 2 2 1 1 1 1 1 2 2 2 3 3
0 2 1 0 1 2 4 3 3 2 1 3 1 6 5 3 3 3 3 3 3 3 3 3 3 3 3 3 3 3 3 3 2 2 1 1 2 2 3 2 2 2 3 3
1 1 1 1 2 1 3 1 2 2 2 2 1 3 8 2 4 5 4 3 3 3 2 3 3 2 3 3 3 3 3 3 3 2 2 2 2 2 2 2 2 2 2 2
1 1 0 1 1 1 0 2 3 3 2 3 3 4 8 3 5 4 3 3 4 3 3 3 2 2 3 3 3 3 3 3 3 3 2 2 3 3 3 3 2 2 2 2
3 2 1 0 2 2 3 3 3 4 2 5 1 3 9 5 4 3 4 4 4 3 3 3 3 3 3 4 4 3 3 3 3 4 3 3 4 4 4 4 3 3 2 2
1 4 2 1 1 1 0 3 4 3 4 5 2 6 8 3 2 2 2 2 3 3 3 3 3 3 3 4 4 4 4 4 4 4 4 4 4 3 3 4 3 3 3 3
2 4 2 1 1 3 2 1 2 4 0 3 6 7 8 2 2 2 2 3 3 4 4 4 3 3 3 4 4 4 4 5 4 4 4 4 4 4 4 3 3 3 3 2
3 2 3 2 2 2 2 4 3 3 1 4 6 5 5 4 4 3 3 3 4 4 4 4 3 3 4 4 4 4 4 5 5 4 4 4 4 4 4 3 4 4 3 2
2 2 3 2 1 2 2 2 2 2 2 3 5 8 5 4 3 3 4 3 4 4 4 5 4 4 4 4 4 4 4 4 5 5 4 4 4 4 3 3 4 3 2 2
1 2 3 4 2 1 3 4 5 3 3 3 3 10 3 2 2 2 4 4 4 4 4 4 4 4 4 4 4 5 5 4 4 4 4 4 4 3 3 3 3 3 2 2
3 3 2 4 3 2 1 2 3 3 3 4 4 10 2 2 3 3 3 4 4 5 5 4 4 4 4 4 5 5 5 4 4 4 4 4 4 4 4 4 3 3 2 2
3 3 5 6 4 2 3 3 3 5 4 5 9 11 9 7 7 7 6 5 5 4 4 4 4 4 5 5 5 6 5 5 4 4 3 4 4 4 4 4 3 3 2 2
3 2 4 6 5 3 5 6 6 9 9 9 9 10 12 8 7 6 5 5 5 5 5 4 5 5 5 5 5 5 5 5 4 4 4 4 4 3 3 3 4 3 2 2
2 1 1 4 3 4 7 9 10 10 9 11 11 14 9 6 4 5 5 5 6 6 6 5 5 5 5 5 5 6 5 5 4 4 4 4 3 3 3 4 4 3 2 2
2 3 1 4 3 4 9 9 10 8 8 8 12 11 5 6 6 6 6 5 5 6 6 6 5 5 6 5 5 5 5 4 4 4 4 3 3 3 4 4 4 3 2 2
4 3 2 2 2 7 8 2 6 7 8 8 8 7 6 7 7 6 5 5 5 5 6 5 5 5 5 4 4 4 4 3 4 4 3 3 3 3 4 3 3 3 2 2
4 5 3 2 3 10 8 3 4 5 7 7 9 8 6 4 4 4 3 3 4 5 5 5 4 4 4 4 4 3 3 3 3 4 3 3 3 4 3 3 3 3 2 2
2 3 3 3 3 8 6 1 2 3 6 4 5 6 3 1 3 5 3 3 4 4 4 4 4 3 4 4 4 2 3 3 4 4 4 3 3 3 3 3 3 2 2 2
2 2 4 5 6 11 6 2 3 3 7 2 3 4 3 4 6 5 5 5 3 3 3 3 3 3 3 4 3 2 3 3 4 4 3 3 3 3 3 3 2 2 2 2
8 6 6 5 6 11 3 5 6 7 2 1 2 3 4 5 4 4 5 5 4 3 3 3 3 3 3 3 2 2 3 3 3 3 3 3 4 3 3 2 2 2 2 2
8 9 7 10 10 5 5 6 5 2 3 3 3 3 3 4 4 4 4 4 4 3 3 3 3 4 4 3 2 2 3 3 2 2 3 3 4 3 3 2 2 2 1 1
5 3 4 7 10 6 6 6 5 4 5 4 3 4 3 4 5 5 4 4 3 3 3 3 3 3 4 4 3 2 3 2 2 2 3 3 3 3 3 3 2 2 2 2
6 6 5 8 8 6 6 6 6 5 4 3 3 4 4 4 5 4 4 4 3 3 3 2 3 4 5 4 3 2 2 1 2 2 2 3 3 3 3 3 3 3 2 2
7 9 9 9 6 5 6 4 3 4 5 5 4 4 4 4 5 4 4 4 3 3 3 3 3 4 4 3 3 2 2 1 1 2 2 2 2 2 2 2 3 6 5 6
Wind_Direction
30 71 157 225 213 204 187 204 252 262 296 295 254 267 277 280 268 270 273 270 266 274 289 311 317 335 2 3 353 337 327 314 313 306 284 262 262 263 266 259 252 245 251 258
48 354 262 253 230 179 204 231 259 287 323 286 281 279 275 265 256 253 258 265 265 300 327 341 344 353 358 342 329 323 315 314 301 280 272 247 246 250 249 270 272 255 253 252
152 259 304 193 210 218 247 219 233 260 327 336 320 300 275 281 295 311 293 282 291 285 301 315 327 328 337 332 320 315 309 312 312 303 306 306 301 302 287 284 267 271 271 260
91 326 347 270 238 215 257 234 225 242 325 301 34 296 281 279 299 299 312 322 308 314 308 306 318 326 328 314 316 320 320 316 315 321 298 266 262 265 272 272 260 271 277 271
267 344 7 247 267 229 234 259 195 190 177 297 272 244 285 309 286 288 295 299 306 314 310 308 311 310 320 320 319 321 319 325 322 311 294 276 269 266 281 285 275 275 280 275
265 256 176 238 302 221 224 67 77 64 82 277 228 198 278 255 257 285 293 303 309 313 318 319 325 337 337 335 331 328 327 322 322 308 293 283 274 275 285 279 271 273 275 269
331 305 337 22 26 25 46 72 30 359 354 257 220 214 256 260 260 256 265 284 300 307 314 317 326 333 332 331 327 325 320 315 313 310 294 279 273 260 256 257 260 266 277 276
333 297 297 354 157 170 139 128 150 212 248 288 295 242 259 275 287 286 274 284 313 320 317 313 308 311 313 315 319 318 313 308 306 301 294 283 276 263 255 254 257 258 259 258
182 269 325 342 329 133 124 142 150 132 158 282 274 283 298 301 327 347 351 343 319 315 316 312 310 314 313 311 307 302 304 305 302 298 295 291 286 275 269 269 265 267 266 261
157 259 301 319 41 34 116 137 100 118 190 276 289 275 268 294 300 319 325 309 303 312 321 321 316 315 310 304 304 306 303 294 297 298 297 298 285 280 275 269 268 268 263 254
116 175 305 347 192 194 109 110 113 130 170 190 281 273 231 230 255 260 270 286 292 300 310 314 317 310 311 312 311 308 308 304 305 305 303 303 300 296 291 272 264 266 266 256
130 129 267 260 256 203 181 174 152 163 234 206 234 271 270 249 274 268 279 291 296 296 298 303 311 322 321 319 317 311 309 306 306 310 314 310 308 308 301 289 279 274 268 256
140 121 351 338 343 357 260 200 178 150 145 189 214 266 316 344 325 301 285 291 299 303 311 317 322 323 324 324 324 322 320 313 314 318 318 316 315 309 305 307 305 296 279 267
115 142 187 216 239 218 247 233 187 171 201 229 233 261 292 308 311 311 305 297 299 301 306 312 313 313 316 318 321 323 320 317 319 323 322 316 306 303 308 317 310 303 295 277
109 197 235 254 257 242 243 243 212 210 216 226 251 256 271 284 287 290 293 298 304 307 307 305 309 312 315 319 323 325 319 321 324 327 321 309 306 312 320 324 314 310 306 298
106 186 255 278 257 254 264 252 234 234 234 241 262 270 271 284 288 292 294 292 294 299 302 307 313 316 314 316 319 323 318 322 328 323 315 317 324 326 325 325 323 322 315 309
156 142 158 274 310 320 270 237 214 218 217 209 237 254 292 301 293 282 281 281 279 289 298 302 304 305 305 309 313 313 313 320 324 321 325 328 326 326 329 330 326 324 316 322
163 153 172 280 12 249 250 218 203 219 241 227 244 264 267 269 280 273 266 263 279 291 297 298 300 302 306 309 313 314 315 320 323 325 329 329 327 326 328 325 326 329 331 333
178 162 158 172 257 276 286 248 183 199 263 228 235 260 277 299 311 288 257 253 264 276 287 290 292 294 302 308 314 321 322 326 330 330 329 328 324 324 327 326 328 325 330 336
124 149 157 170 224 253 259 248 158 117 282 247 216 246 267 359 307 280 296 304 301 304 298 299 305 307 309 313 320 325 325 333 328 325 325 328 327 324 321 317 320 328 333 333
159 174 198 206 237 263 256 192 128 167 258 276 210 236 214 210 233 273 304 306 302 305 306 311 313 311 307 312 323 324 326 320 317 328 337 341 337 327 319 326 331 335 341 345
182 182 198 185 223 255 201 146 191 224 262 250 241 242 232 245 273 292 297 299 307 315 320 323 321 315 316 317 318 309 308 311 324 338 346 345 340 335 340 344 337 334 347 358
204 196 192 199 221 243 186 206 226 221 241 243 241 255 241 254 268 283 290 292 299 305 311 322 317 314 318 320 312 290 301 318 335 349 348 343 343 343 340 338 332 332 342 356
236 191 204 251 260 254 244 248 253 239 236 247 243 251 241 249 263 274 285 292 298 303 309 317 317 311 311 317 315 289 303 328 348 345 340 346 349 343 343 341 337 337 337 339
215 177 210 249 267 290 268 237 242 243 241 258 264 249 244 246 260 260 272 278 279 289 299 298 293 294 299 306 308 309 317 344 353 341 344 346 343 338 343 347 342 337 325 320
194 188 196 230 226 216 254 253 229 228 241 242 250 264 261 242 252 259 264 268 269 274 287 292 293 293 297 302 305 312 319 327 348 341 343 336 332 339 348 352 357 360 356 356